Location: Fours
(44.3167°N, 6.7000°E)
Time: 23:17:26
(UTC+00:00)

Timation 2 Rocket - Pass Details

Date: 16 October 2021
Orbit: 904 x 1077 km, 70.0° (Epoch: 26 November)

Event Time Altitude Azimuth Distance (km) Brightness Sun altitude
Rises 17:48:06 0° 331° (NNW) 3,883 7.5 -11.6°
Reaches altitude 10° 17:50:46 10° 330° (NNW) 2,922 6.9 -12.1°
Maximum altitude 17:57:38 73° 247° (WSW) 1,114 4.5 -13.3°
Drops below altitude 10° 18:04:18 10° 164° (SSE) 2,839 6.3 -14.5°
Sets 18:06:51 0° 163° (SSE) 3,765 6.9 -15.0°
